Dashboard

GC7XB4H - 05# De Blauwbloezen

by Expie

published: Wed, 12 Sep 2018 8:04:00 am

Certitude Solution



Puzzle stats
130 Woo-Hoo!
122 D'Oh!
Latest activity:
Tue, 18 Sep 2018
Note that some of those attempts may have been anonymous.



You can subscribe to an RSS feed for:
 this puzzle
 Expie's puzzles
 puzzles in N50 E004 quadrangle
 puzzles in Vlaams-Brabant
 all puzzles

Your geocaching name is unknown, please sign in to identify yourself. How does it work?

Puzzle solvers, you can certify your solution here:
Show solution 
Show attempts 

(keyword required)
  Stay anonymous

Certified solvers

RankUserTime (Brussels, Europe)
1.KoidreamWed, 12 Sep 2018 8:17:12 am
2.DwiggerWed, 12 Sep 2018 8:28:40 am
3.BriSan.Wed, 12 Sep 2018 8:29:04 am
4.soyoyastWed, 12 Sep 2018 8:32:21 am
5.GeroMinosWed, 12 Sep 2018 8:38:34 am
6.EveRan2013Wed, 12 Sep 2018 9:05:34 am
7.SaGeZoWed, 12 Sep 2018 9:43:29 am
8.JoanyoWed, 12 Sep 2018 9:46:33 am
9.team fredstromWed, 12 Sep 2018 9:50:03 am
10.Christelle & FionaWed, 12 Sep 2018 9:56:18 am
11.johnny lightningWed, 12 Sep 2018 10:00:35 am
12.HuntingBWed, 12 Sep 2018 10:00:50 am
13.JeankeMotarWed, 12 Sep 2018 10:14:32 am
14.lowie49Wed, 12 Sep 2018 10:40:35 am
15.KamaSnurkaWed, 12 Sep 2018 11:16:28 am
16.heksemie anirca62Wed, 12 Sep 2018 12:09:53 pm
17.badmintonnersWed, 12 Sep 2018 12:19:31 pm
18.Edine4geoWed, 12 Sep 2018 12:23:48 pm
19.WaldogWed, 12 Sep 2018 12:28:08 pm
20.krisalninWed, 12 Sep 2018 1:20:02 pm
21.Sabbi17Wed, 12 Sep 2018 1:20:46 pm
22.LiaIneWed, 12 Sep 2018 1:26:57 pm
23.daniella&julienWed, 12 Sep 2018 2:06:30 pm
24.ErannWed, 12 Sep 2018 2:20:43 pm
25.willy boy1Wed, 12 Sep 2018 2:26:02 pm
26.rickrichWed, 12 Sep 2018 3:00:04 pm
27.wandeltrakkerWed, 12 Sep 2018 3:04:06 pm
28.lifraWed, 12 Sep 2018 3:11:21 pm
29.ZwuzzeWed, 12 Sep 2018 3:23:06 pm
30.sponskenWed, 12 Sep 2018 4:10:42 pm
31.de vliegenvangersWed, 12 Sep 2018 4:51:09 pm
32.sweetjoeWed, 12 Sep 2018 4:54:23 pm
33.Hannah_NWed, 12 Sep 2018 6:01:23 pm
34.prins6Wed, 12 Sep 2018 6:04:53 pm
35.snollebollekesWed, 12 Sep 2018 6:18:48 pm
36.Bruintje.de.beerWed, 12 Sep 2018 6:45:27 pm
37.TORRAXWed, 12 Sep 2018 6:52:41 pm
38.egelshofWed, 12 Sep 2018 7:03:20 pm
39.tfxerWed, 12 Sep 2018 7:45:37 pm
40.VOSPAMAWed, 12 Sep 2018 7:54:48 pm
41.yves2806Wed, 12 Sep 2018 7:58:19 pm
42.Borderke izzyWed, 12 Sep 2018 8:04:08 pm
43.de smileyWed, 12 Sep 2018 8:15:37 pm
44.geo_bartendanielleWed, 12 Sep 2018 8:37:38 pm
45.MREBWed, 12 Sep 2018 9:00:46 pm
46.weba25Wed, 12 Sep 2018 9:58:56 pm
47.Stylo & JoskeWed, 12 Sep 2018 10:06:21 pm
48.LuintoSTWed, 12 Sep 2018 10:17:57 pm
49.Joske0304699Wed, 12 Sep 2018 11:22:22 pm
50.casiswaryaWed, 12 Sep 2018 11:37:13 pm
51.PoeFThu, 13 Sep 2018 12:07:29 am
52.johannemieThu, 13 Sep 2018 12:08:02 am
53.Greetje800Thu, 13 Sep 2018 12:30:51 am
54.machpatThu, 13 Sep 2018 12:31:29 am
55.haka1Thu, 13 Sep 2018 7:01:01 am
56.rommarThu, 13 Sep 2018 9:42:57 am
57.KHU1Thu, 13 Sep 2018 9:52:08 am
58.Ricky50Thu, 13 Sep 2018 10:51:47 am
59.akelaindeweerThu, 13 Sep 2018 11:47:14 am
60.R_JThu, 13 Sep 2018 3:30:08 pm
61.mikee67Thu, 13 Sep 2018 3:48:45 pm
62.GeellukamajaThu, 13 Sep 2018 7:28:43 pm
63.HEYTSEThu, 13 Sep 2018 7:46:17 pm
64.maguy15Thu, 13 Sep 2018 9:45:00 pm
65.Scallie73Thu, 13 Sep 2018 10:15:53 pm
66.LuibeerkeFri, 14 Sep 2018 7:19:13 am
67.brestFri, 14 Sep 2018 8:08:16 am
68.Nettles2014Fri, 14 Sep 2018 8:33:00 am
69.tesslooFri, 14 Sep 2018 10:16:53 am
70.Dine =)Fri, 14 Sep 2018 1:19:10 pm
71.tinrafFri, 14 Sep 2018 3:35:51 pm
72.liliremFri, 14 Sep 2018 4:19:09 pm
73.kato3Fri, 14 Sep 2018 6:48:28 pm
74.veromekeFri, 14 Sep 2018 8:38:08 pm
75.TeamYarDieFri, 14 Sep 2018 10:38:00 pm
76.2donickySat, 15 Sep 2018 3:56:37 pm
77.golodhSat, 15 Sep 2018 8:41:22 pm
78.CrapionSat, 15 Sep 2018 9:33:18 pm
79.DenDulleSat, 15 Sep 2018 9:43:38 pm
80.DEN TROLSun, 16 Sep 2018 9:03:59 am
81.KLUPPELSun, 16 Sep 2018 8:11:51 pm
82.lankatrasMon, 17 Sep 2018 11:13:25 am
83.fravanoMon, 17 Sep 2018 1:24:44 pm
84.Edenchris1959Mon, 17 Sep 2018 2:40:12 pm
85.tripper13Mon, 17 Sep 2018 4:11:14 pm
86.Team XennaMon, 17 Sep 2018 8:13:32 pm
87.homeboyMon, 17 Sep 2018 9:10:53 pm
88.BergheboyMon, 17 Sep 2018 9:37:34 pm
89.tismooizoTue, 18 Sep 2018 11:36:37 am
90.PtitmamanNeroBelgiumTue, 18 Sep 2018 12:50:05 pm
91.AladaubeTue, 18 Sep 2018 5:34:10 pm
92.De woesten en SmurfelTue, 18 Sep 2018 7:53:50 pm
93.Team_Griml0rdTue, 18 Sep 2018 9:12:28 pm
94.tigerententeamTue, 18 Sep 2018 9:15:13 pm
95.RudyDCTue, 18 Sep 2018 11:38:51 pm